Retour au catalogue

ICEYE-X4

ActifSciencePO
NORAD 44390·PAYLOAD·🇫🇮 Finland

Lancé Jul 5, 2019 depuis Vostochny Cosmodrome

Loading…

Prochains Passages (prochaines 24 heures)

TLE

FraisSource: Space-Track

Époque: Sep 14, 2026, 14:09 UTC

1 44390U 19038D   26257.58961804  .00009189  00000-0  30845-3 0  9994
2 44390  97.8690 295.8511 0012258 358.2149   1.9045 15.31046889395474

Suivez ICEYE-X4 en temps réel avec AllMySat

Download on the App Store